Location: Winnipeg
(49.8830°N, 97.1670°W)
Time: 01:28:23
(UTC-06:00)

Envisat - Visible Passes

Search period start: 04 March 2024 00:00
Search period end: 14 March 2024 01:00
Orbit: 762 x 764 km, 98.3° (Epoch: 03 March)

Date Brightness Start Highest point End Pass type
(mag) Time Alt. Az. Time Alt. Az. Time Alt. Az.
04 Mar 5.6 02:32:34 10° NE 02:34:21 14° ENE 02:34:21 14° ENE visible
04 Mar 3.0 04:09:50 10° NNE 04:14:31 76° NNE 04:14:31 76° NNE visible
04 Mar 4.6 05:50:07 10° NNW 05:53:14 17° NW 05:54:41 15° WNW visible
05 Mar 4.0 03:32:40 10° NNE 03:36:55 43° ENE 03:36:55 43° ENE visible
05 Mar 3.8 05:11:59 10° N 05:16:22 30° WNW 05:17:05 29° WNW visible
06 Mar 5.1 02:55:58 10° NE 02:59:19 22° E 02:59:19 22° E visible
06 Mar 3.0 04:34:19 10° N 04:39:18 57° WNW 04:39:30 57° W visible
06 Mar 4.9 06:15:51 10° NW 06:17:14 11° NW 06:18:38 10° WNW visible
07 Mar 5.8 02:20:52 10° ENE 02:21:44 11° E 02:21:44 11° E visible
07 Mar 3.1 03:56:56 10° NNE 04:01:54 72° E 04:01:54 72° E visible
07 Mar 4.4 05:36:51 10° NNW 05:40:30 20° WNW 05:42:04 18° W visible
08 Mar 4.3 03:19:54 10° NNE 03:24:19 35° E 03:24:19 35° E visible
08 Mar 3.6 04:58:55 10° N 05:03:33 37° WNW 05:04:29 34° W visible
09 Mar 5.3 02:43:28 10° NE 02:46:43 18° E 02:46:43 18° E visible
09 Mar 2.8 04:21:20 10° N 04:26:25 72° WNW 04:26:53 67° WSW visible
09 Mar 4.8 06:02:05 10° NNW 06:04:32 14° NW 06:07:00 10° W visible
10 Mar 3.4 04:44:04 10° NNE 04:49:05 57° E 04:49:18 56° ESE visible
10 Mar 4.1 06:23:40 10° N 06:27:44 25° WNW 06:29:28 20° W visible
11 Mar 4.6 04:07:11 10° NE 04:11:33 28° E 04:11:42 28° E visible
11 Mar 3.3 05:45:52 10° N 05:50:43 46° WNW 05:51:52 39° WSW visible
12 Mar 5.5 03:31:10 10° NE 03:33:48 14° E 03:34:06 14° E visible
12 Mar 2.9 05:08:23 10° NNE 05:13:31 90° SSE 05:14:16 66° SSW visible
12 Mar 4.6 06:48:39 10° NNW 06:51:49 17° NW 06:54:26 12° W visible
13 Mar 3.8 04:31:14 10° NNE 04:36:07 45° E 04:36:41 43° ESE visible
13 Mar 3.9 06:10:32 10° N 06:14:56 30° WNW 06:16:51 23° W visible
